www.pogodaiklimat.ru

Погода и климат >> Архив погоды >> Казахстан >> Жангизтобе


ПОГОДА в Жангизтобе

  • Прогноз погоды в Жангизтобе
  • Монитор погоды в Жангизтобе
  • Климат города

АРХИВ ПОГОДЫ в Жангизтобе

Время (UTC), дата Ветер
(напр.,м/с)
 
Видим.   Явления Облачность Т
(С)
Тd
(С)
f
(%)
Тe
(С)
Тes
(С)
Комфортность P
(гПа)
Po
(гПа)
Тmin
(С)
Tmax
(С)
R
(мм)
S
(см)
03 17.02 Ю 24-28
{28}
20 км сильный позёмок {метель} 9/0
[Ac As Ci fib]
-7.3 -9.0 88 -21 -21 1012.5 955.4 2
06 17.02 ЮВ 17-20
{27}
20 км сильный позёмок {метель} 10/0
[Ac As]
-6.1 -8.4 84 -18 -18 1012.7 956.1 -11.3
09 17.02 ЮЗ 4
{27}
50 км в посл. час ливневой снег {метель} 10/10 1000 м
[Cb calv]
-0.2 -3.1 81 -6 -6 1015.3 959.7
12 17.02 З 3 50 км {ливн. осадки, метель} 10/10 1000 м
[Sc]
-5.0 -7.0 86 -11 -11 1021.1 964.2
15 17.02 ЮЗ 2 н/о 10/10 1000 м
[Sc]
-9.5 -11.6 85 -14 -14 1026.9 968.7 +0.1
18 17.02 СЗ 2 н/о {снег} 10/0
[Ac As]
-12.3 -14.9 81 -17 -17 1029.1 970.2 +0.1 0.9
21 17.02 СВ 1 н/о {снег} 10/0
[As trans]
-14.2 -16.7 81 -17 -17 1030.3 970.9
00 18.02 штиль 0 н/о {снег} 10/0
[As trans]
-15.8 -18.3 81 -16 -16 1029.8 970.1
03 18.02 штиль 0 50 км 10/0
[As op]
-16.7 -19.0 82 -17 -16 1029.6 969.7 4
06 18.02 СВ 1 50 км 10/0
[As op]
-14.8 -17.2 82 -17 -16 1028.3 968.9 -17.0 0.4
09 18.02 СЗ 1 50 км 10/0
[As op]
-13.5 -15.9 82 -16 -15 1027.5 968.4
12 18.02 С 1 50 км 10/0
[As op]
-14.6 -17.0 82 -17 -17 1027.0 967.7
15 18.02 СЗ 1 н/о 10/0
[Ac As]
-14.8 -17.2 82 -17 -17 1026.6 967.3 -13.1
18 18.02 штиль 0 н/о 10/0
[As op]
-15.1 -17.3 83 -15 -15 1024.4 965.1 -13.1
21 18.02 СЗ 1 н/о 10/0
[As op]
-15.5 -17.9 82 -18 -18 1021.8 962.6
00 19.02 штиль 0 н/о слабый снег 10/0
[As op]
-15.2 -17.4 83 -15 -15 1021.0 961.9
03 19.02 ЮЗ 2 2000 м снег 10/0 600 м
[As op]
-9.9 -11.6 87 -14 -14 1020.1 962.2 6
06 19.02 ЮЗ 9 20 км позёмок {снег, метель} 10/0
[As trans]
-3.0 -6.4 77 -12 -11 1020.7 964.3 -16.1 3
09 19.02 ЮЗ 11
{19}
20 км позёмок {метель} 3/0
[Ac cast]
-4.0 -7.7 75 -14 -14 1024.1 967.3
12 19.02 ЮЗ 8
{19}
50 км {метель} 8/0
[Ac As Ci fib]
-8.1 -13.2 67 -17 -17 1032.7 974.5
15 19.02 ЮЗ 6 н/о 3/0
[Ac lent]
-10.4 -16.5 61 -19 -19 1037.0 978.1 -2.8
18 19.02 Ю 7 н/о ясно -13.0 -17.8 67 -23 -23 1039.2 979.6 -2.8 0.5
21 19.02 Ю 8 н/о ясно -13.2 -18.0 67 -24 -24 1038.4 978.8
00 20.02 Ю 11
{17}
н/о 6/0
[Ac lent Ci fib]
-12.8 -16.8 72 -25 -25 1037.3 977.8
03 20.02 ЮЗ 12
{18}
20 км позёмок {метель} 9/6 1000 м
[Sc Ac lent]
-12.0 -16.2 71 -24 -24 1037.4 978.1 7
06 20.02 ЮЗ 13-15
{19}
2000 м слабый снег {метель} 10/0
[As op]
-10.2 -13.6 76 -22 -22 1034.9 976.1 -13.4
09 20.02 ЮЗ 17-20
{24}
500 м слабый снег {метель} 10/0
[As op]
-8.7 -11.5 80 -21 -21 1033.5 975.1
12 20.02 ЮЗ 10
{24}
20 км позёмок {снег, метель} 4/0
[Ac lent]
-8.6 -12.8 72 -19 -19 1035.0 976.6
15 20.02 ЮЗ 9 н/о {метель} 4/0
[Ac lent]
-8.5 -12.7 72 -18 -18 1036.7 978.2 -8.0
18 20.02 ЮЗ 8 н/о {метель} 10/0
[Ac As]
-7.4 -10.8 77 -17 -17 1036.7 978.4 -8.0 1
21 20.02 Ю 9 н/о 10/0
[Ac As]
-6.0 -9.5 76 -15 -15 1035.4 977.5
00 21.02 ЮВ 10 н/о 10/10 1000 м
[Sc]
-8.3 -9.3 92 -19 -19 1034.6 976.3
03 21.02 ЮВ 16-17
{21}
200 м снег {метель} 10/0 600 м
[As op]
-8.7 -9.6 93 -21 -21 1034.5 976.1 5
06 21.02 ЮВ 16-19
{21}
200 м слабый снег {метель} 10/0 600 м
[As op]
-8.5 -9.6 92 -21 -21 1034.0 975.7 -8.9 0.6
09 21.02 ЮВ 15-17
{19}
1000 м метель {снег} 10/0
[Ac As]
-7.0 -9.9 80 -19 -19 1034.0 976.0
12 21.02 ЮВ 13
{17}
20 км сильный позёмок {снег, метель} 10/0
[As op]
-7.5 -9.6 85 -19 -19 1034.3 976.2
15 21.02 ЮВ 11
{17}
н/о сильный позёмок {метель} 10/0
[As op]
-7.8 -9.6 87 -18 -18 1034.9 976.7 -6.6
18 21.02 Ю 12
{18}
н/о сильный позёмок {метель} 10/0
[Ac As]
-8.1 -9.9 87 -19 -19 1035.2 976.9 -6.6 2
21 21.02 Ю 11 н/о позёмок {метель} 8/0
[Ac cast]
-8.4 -10.3 86 -19 -19 1034.9 976.5
00 22.02 Ю 11
{19}
н/о позёмок {метель} 3/0
[Ac lent]
-9.6 -11.7 85 -21 -21 1035.1 976.5
03 22.02 Ю 3 50 км {метель} ясно -9.1 -13.0 73 -15 -14 1036.1 977.5 4
06 22.02 Ю 2 50 км {метель} ясно -6.4 -11.3 68 -11 -5 1035.1 977.1 -9.9
09 22.02 Ю 3 50 км ясно -6.0 -12.2 61 -11 -8 1034.0 976.2
12 22.02 Ю 6 50 км ясно -7.5 -13.4 63 -15 -15 1034.7 976.5
15 22.02 Ю 3 н/о ясно -8.6 -14.4 63 -14 -14 1034.9 976.5 -5.6
18 22.02 Ю 5 н/о ясно -10.9 -15.1 71 -19 -19 1035.1 976.2 -5.6
21 22.02 Ю 5 н/о ясно -11.0 -17.2 60 -19 -19 1033.9 975.0
00 23.02 Ю 4 н/о ясно -11.1 -17.1 61 -18 -18 1032.9 974.0
03 23.02 Ю 5 50 км ясно -10.9 -17.2 60 -19 -18 1032.5 973.7 4
06 23.02 Ю 5 50 км ясно -8.3 -13.5 66 -16 -13 1031.6 973.4 -11.4
09 23.02 Ю 5 50 км ясно -5.6 -12.1 60 -12 -11 1030.5 973.0
12 23.02 Ю 2 50 км ясно -7.3 -14.7 55 -11 -11 1030.7 972.8
15 23.02 Ю 2 н/о ясно -8.2 -16.2 52 -12 -12 1030.9 972.8 -5.2
18 23.02 Ю 1 н/о ясно -10.3 -17.4 56 -12 -12 1030.3 971.8 -5.2
21 23.02 ЮВ 8 н/о ясно -10.6 -15.9 65 -20 -20 1028.9 970.4
00 24.02 Ю 9 н/о ясно -11.3 -15.7 70 -22 -22 1029.1 970.4

 

Местоположение метеостанции Жангизтобе (Восточно-Казахстанская область, Казахстан): широта 49.22 долгота 81.22 высота над уровнем моря 455 м.

В архиве по умолчанию представлена погода в Жангизтобе за последнюю неделю. Архивные данные за месяц целиком и за предыдущие месяцы, начиная с января 2011 года, Вы можете получить, выбрав интересующий диапазон дат из раскрывающегося списка и нажав кнопку "Ввод!".

Внимание! Время в таблицах - всемирное. Для получения местного времени необходимо прибавить поправку, которая в Жангизтобе равна 6 ч.

Смотрите также архив погоды в соседних городах и на ближайших метеорологических станциях:

Погода в Кентерлау (Восточно-Казахстанская область, Казахстан) (29 км)
Погода в Шаре (Восточно-Казахстанская область, Казахстан) (42 км)
Погода в Шалабае (Восточно-Казахстанская область, Казахстан) (57 км)
Погода в Кокпектах (Восточно-Казахстанская область, Казахстан) (99 км)
Погода в Кайсенова (Восточно-Казахстанская область, Казахстан) (117 км)
Погода в Таврии (Восточно-Казахстанская область, Казахстан) (121 км)
Погода в Первомайском (Восточно-Казахстанская область, Казахстан) (130 км)
Погода в Шульбинске (Восточно-Казахстанская область, Казахстан) (130 км)
Погода в Глубоком (Восточно-Казахстанская область, Казахстан) (130 км)
Погода в Усть-Каменогорске (Восточно-Казахстанская область, Казахстан) (131 км)

Пояснения к столбцам:

Ветер - указаны скорость ветра в м/с - средняя за 10 мин, порывы в срок и между сроками (в фигурных скобках) и направление, откуда дует ветер: С - северный, СВ - северо-восточный, В - восточный, ЮВ - юго-восточный, Ю - южный, ЮЗ - юго-западный, З - западный, СЗ - северо-западный.
Видимость - горизонтальная дальность видимости в метрах или километрах. При видимости от 1 до 10 км при отсутствии осадков обычно наблюдается дымка, при ухудшении видимости до 1 км и менее - туман. В сухую погоду видимость может ухудшаться дымом, пылью или мглою.
Явления - указаны атмосферные явления, наблюдавшиеся в срок или в последний час перед сроком; фигурными скобками обозначены явления, наблюдавшиеся между сроками (за 1-3 часа до срока); квадратными скобками обозначены град или гололедные отложения с указанием их диаметра в мм.
Облачность - указаны через наклонную черту общая и нижняя облачность в баллах и высота нижней границы облаков в метрах; квадратными скобками обозначены формы облаков: Ci - перистые, Cs - перисто-слоистые, Cc - перисто-кучевые, Ac - высококучевые, As - высокослоистые, Sc - слоисто-кучевые, Ns - слоисто-дождевые, Cu - кучевые, Cb - кучево-дождевые. Подробнее классификацию облаков см. в Атласе облаков (PDF).
T - Температура воздуха - температура, измеренная на высоте 2 м над землей.
Td - Температура точки росы - температура, при понижении до которой содержащийся в воздухе водяной пар достигнет насыщения.
f - Относительная влажность воздуха - влажноcть воздуха, измеренная на высоте 2 м над землей.
Te - Эффективная температура - температура, которую ощущает одетый по сезону человек в тени. Характеристика душности погоды. При расчете учитывается влияние влажности воздуха и скорости ветра на теплоощущения человека.
Tes - Эффективная температура на солнце - температура, которую ощущает человек, с поправкой на солнечный нагрев. Характеристика знойности погоды. Зависит от высоты солнца над горизонтом, облачности и скорости ветра. Ночью, в пасмурную погоду, а также при ветре 12 м/с и более поправка равна нулю.
P - Атмосферное давление - приведенное к уровню моря атмосферное давление.
Po - Атмосферное давление - измеренное на уровне метеостанции атмосферное давление.
Tmin - Минимальная температура - минимум температуры воздуха на высоте 2 м над землей.
Tmax - Максимальная температура - максимум температуры воздуха на высоте 2 м над землей.
R - Количество осадков - Количество выпавших осадков, мм. При наведении курсора мыши на число - период времени, за который выпало указанное количество осадков.
S - Снежный покров - Высота снежного покрова, см. При наведении курсора мыши на число - состояние снежного покрова и степень покрытия местности в баллах.